Weather WX

World > North America > United States > Mississippi

Clack, Mississippi Regional Weather

Lat: 34.85N, Lon: 90.29W
Wx Zone: MSZ007
Warning FLW WEATHER ALERT - (More Info. Click Here) Warning
Feedback

Clack, MS Regional Weather

Expires:201906251400;;054009
ASUS44 KJAN 251310
RWRMS 

MISSISSIPPI HOURLY WEATHER ROUNDUP
NATIONAL WEATHER SERVICE JACKSON MS
800 AM CDT TUE JUN 25 2019

NOTE: "FAIR: INDICATES FEW OR NO CLOUDS BELOW 12,000 FEET WITH NO
SIGNIFICANT WEATHER AND/OR OBSTRUCTIONS TO VISIBILITY.


MSZ001>002-007>008-010>013-018>021-025>028-034>036-251400-
NORTHWEST MISSISSIPPI
  
CITY           SKY/WX    TMP DP  RH WIND       PRES   REMARKS
BATESVILLE     CLOUDY    72  70  94 CALM      30.06R                  
CLARKSDALE     PTSUNNY   75  75 100 CALM      30.06R                  
CLEVELAND      FAIR      75  75 100 SW6       30.05S                  
GREENWOOD      FAIR      74  71  91 CALM      30.06R                  
GREENVILLE     SUNNY     75  72  88 SE3       30.04R                  
OLIVE BRANCH   MOSUNNY   75  70  83 SW7       30.06R                  
OXFORD         PTSUNNY   72  70  94 S3        30.08S                  
TUNICA           N/A     73  72  94 S6        30.06R                  
WINONA         FAIR      71  71 100 CALM      30.08R                  
$$


SKY/WX - Weather  TMP - Temperature  DP - Dew Point  RH - Relative Humidity
WIND - Wind Direction/Speed PRES - Barometric Pressure VSB - Visibility
WCI - Wind Chill Index E13G22 Wind - East Wind 13 mph/Gusts of 22 mph